Wind_Speed
45 46 47 48 50 51 52 53 55 56 57 58 59 60 61 62 64 66 68 71 72 73 74 74 73 72 71 70 69 67 66 65 64 62 62 63 60 58 58 57 55 54 54 56 58 60 61 62 62 62 63 63 63 64 64 65 65 65 63 58 53 52 53 54 56 57 59 60 62 64 64 63 62 63 64 64 61 60 59 56 55 53 52 51 49 48 46 45
48 50 51 52 53 54 55 57 58 59 61 62 63 64 65 66 66 67 68 70 72 74 76 77 77 77 76 74 73 71 70 70 68 67 67 66 64 63 63 60 59 58 57 59 59 59 60 61 62 62 62 61 61 63 63 63 63 63 61 58 54 53 55 56 59 61 62 63 65 66 66 65 63 65 65 63 61 59 57 56 54 52 51 51 49 47 45 45
51 52 54 55 56 58 59 60 62 63 64 65 67 68 69 70 71 71 71 72 72 74 75 77 78 78 78 77 76 75 74 73 72 73 72 69 68 67 66 65 63 62 61 63 61 59 59 60 60 61 61 61 60 61 62 62 61 61 60 56 54 56 58 59 61 62 64 67 68 67 67 66 65 65 65 63 61 59 57 55 53 52 51 50 48 46 44 45
53 55 56 58 60 61 63 65 66 67 69 70 71 72 74 74 75 76 76 76 76 76 77 77 78 78 78 77 77 76 76 76 76 77 75 72 72 71 70 69 67 65 65 66 63 60 59 59 59 59 60 60 60 61 60 59 59 59 57 55 55 58 60 61 63 64 67 69 70 69 68 67 66 65 65 64 60 59 57 54 53 52 51 50 48 45 44 44
56 58 59 61 63 65 66 68 70 72 74 75 76 77 79 79 80 81 81 81 81 81 81 80 80 80 79 78 78 77 77 77 77 79 77 74 74 74 73 72 70 69 67 67 65 62 60 59 59 59 59 59 60 60 58 58 58 57 56 54 56 59 60 63 66 68 70 71 71 70 69 69 68 66 66 64 60 59 57 54 53 52 51 49 47 45 45 44
59 61 62 64 66 68 70 72 74 77 79 80 82 83 84 85 85 86 86 86 86 86 85 85 84 83 82 81 80 79 79 78 79 81 80 77 76 75 75 74 73 71 69 68 67 65 63 61 60 58 58 58 59 58 59 60 60 56 55 55 56 57 60 63 67 70 71 71 71 71 71 70 69 68 68 64 61 60 58 55 54 53 52 49 48 46 45 45
63 65 67 69 71 73 75 77 80 82 84 86 88 90 91 91 91 91 92 91 91 91 90 89 88 87 86 85 83 82 81 82 83 83 81 79 78 77 76 76 75 73 71 69 68 68 66 64 61 59 58 58 58 57 59 61 60 57 55 55 55 57 59 62 66 69 71 71 72 72 71 70 69 69 68 65 61 61 59 57 56 55 52 50 49 47 46 47
67 69 71 74 76 78 81 83 86 89 91 93 94 96 97 98 98 98 98 97 97 96 95 94 93 91 90 88 87 85 85 87 85 81 79 78 77 78 78 78 77 75 72 71 70 69 67 65 63 61 59 58 58 58 59 61 59 56 56 56 56 56 58 61 64 68 70 71 72 71 69 69 70 69 67 63 62 62 61 59 58 56 53 51 50 50 50 50
71 73 76 79 81 84 88 91 94 96 98 100 101 103 104 105 105 105 105 104 103 101 100 98 97 96 94 92 90 89 91 90 85 81 79 78 77 77 78 79 78 76 74 72 71 70 69 67 65 64 62 60 59 59 59 59 56 54 56 57 57 57 58 61 63 65 68 69 70 69 69 70 71 69 65 62 62 62 62 61 60 58 56 54 53 53 53 52
75 78 81 84 88 91 95 98 101 103 104 106 107 108 108 109 109 110 109 109 108 107 105 102 101 100 98 96 93 93 95 93 87 84 82 81 79 77 77 78 78 77 75 73 72 71 70 69 69 68 65 63 61 59 59 57 54 54 55 57 57 58 60 62 62 63 64 65 66 66 68 71 70 67 63 61 62 62 62 61 61 60 58 57 56 56 55 54
78 82 86 90 94 97 101 103 105 106 106 107 107 107 108 109 109 110 110 110 110 110 109 107 105 103 101 99 97 98 99 95 92 89 86 84 82 78 77 76 78 78 76 74 73 73 73 72 72 70 67 65 62 60 59 56 54 54 54 56 57 58 60 61 61 62 62 61 62 63 66 68 67 64 61 61 62 62 61 61 60 60 60 60 59 58 57 56
82 86 90 95 98 101 102 103 103 102 102 101 101 101 101 101 102 104 104 105 107 108 109 110 108 106 104 101 101 103 102 98 97 94 90 87 84 81 78 76 77 78 77 76 75 75 75 75 74 71 68 66 64 63 61 57 55 53 52 54 55 56 57 58 60 61 61 60 61 62 63 63 62 61 61 62 63 62 61 61 61 61 61 61 61 61 60 58
84 89 93 97 98 97 96 95 94 93 93 93 93 92 91 91 92 92 93 95 99 103 106 109 109 108 106 104 105 108 104 101 101 97 94 90 85 83 80 78 78 78 78 77 76 76 76 76 73 71 69 68 66 65 61 58 56 54 52 53 55 55 54 55 58 59 59 60 61 61 58 57 59 59 59 60 61 61 61 61 62 62 62 62 63 63 61 61
87 91 93 92 90 87 85 84 84 85 86 86 86 85 84 84 83 83 83 84 87 92 98 102 105 107 107 106 110 110 104 103 104 100 96 93 88 85 83 81 80 79 79 78 78 76 75 74 72 70 69 67 66 65 63 60 58 56 55 52 53 52 51 54 56 56 57 58 61 59 55 56 59 58 57 58 59 59 59 60 61 62 63 64 64 62 62 63
88 88 86 82 79 77 77 77 78 80 81 81 80 78 78 78 77 76 75 76 79 82 86 91 96 102 105 109 114 111 105 105 107 103 99 95 93 90 86 84 82 80 80 79 78 76 74 72 69 67 66 65 65 64 62 61 59 58 55 50 50 50 49 53 55 54 55 57 59 57 53 57 60 58 57 57 57 57 58 58 59 61 63 65 64 63 64 64
86 82 77 73 72 72 72 72 73 75 76 75 72 70 71 71 70 69 68 69 71 74 78 81 86 92 98 108 115 112 106 107 109 106 101 98 97 95 90 86 84 82 82 81 79 76 74 70 67 66 65 64 63 61 60 61 59 58 54 50 50 49 49 52 53 52 54 56 56 53 51 55 58 58 58 57 57 57 56 57 58 60 62 64 63 64 64 63
81 75 70 68 67 67 66 66 66 69 70 67 63 63 64 64 62 61 61 62 64 67 71 75 80 82 87 99 112 114 110 108 110 108 104 101 100 99 94 89 87 85 84 83 80 76 73 70 67 66 64 62 60 59 57 55 54 55 53 51 51 50 50 53 53 52 54 54 53 51 50 53 56 56 56 57 57 58 57 58 59 60 61 62 62 63 63 62
76 71 68 65 63 62 61 60 60 63 63 59 56 57 59 57 55 55 54 55 57 60 63 68 73 76 80 91 105 112 111 110 111 109 106 104 103 101 97 93 91 89 87 84 80 77 74 71 69 67 64 62 59 55 51 48 49 51 52 52 52 52 52 53 54 53 53 53 52 50 49 51 54 53 54 55 56 57 58 59 60 60 60 61 61 61 60 59
73 70 66 62 59 57 56 55 55 58 59 54 50 52 53 51 50 49 49 49 50 52 56 61 66 70 77 87 96 103 107 110 112 110 107 106 105 102 99 97 94 91 89 85 82 79 76 73 71 67 62 59 56 53 51 49 49 51 53 54 55 54 54 55 55 54 53 53 51 50 49 51 53 52 52 53 54 55 57 59 61 61 61 60 59 57 56 56
72 69 65 61 56 54 53 52 52 53 54 51 47 47 47 45 44 44 44 44 45 46 50 54 59 64 72 82 89 94 99 105 111 110 107 107 107 104 101 100 98 94 90 86 84 81 78 75 70 65 62 60 59 57 55 53 52 52 52 54 56 56 56 57 58 56 55 53 51 50 50 51 52 52 52 52 53 54 56 59 61 61 61 59 56 53 53 54
72 68 64 60 55 52 51 50 49 49 49 46 44 43 43 41 39 38 38 39 40 42 45 49 53 59 68 78 84 88 92 98 105 109 108 107 107 106 103 102 101 96 91 89 87 84 80 74 70 67 66 65 63 61 59 56 55 54 53 53 54 55 56 58 60 58 57 55 53 52 51 50 51 51 51 51 51 53 56 58 59 59 58 55 53 52 52 53
72 68 64 59 54 52 50 48 46 45 44 42 40 39 39 38 36 34 34 34 35 38 41 44 48 55 66 75 80 82 86 91 98 104 107 108 108 107 105 103 102 98 95 93 90 85 79 73 71 71 70 68 66 64 62 59 57 56 54 52 52 53 56 59 60 59 57 56 55 54 52 51 50 50 50 50 51 52 55 56 56 55 52 51 50 51 53 53
72 67 63 59 55 52 50 47 44 42 41 38 37 36 35 35 33 31 31 30 31 35 38 40 45 54 64 72 75 76 80 87 93 99 103 108 110 109 107 104 103 101 98 94 90 85 79 75 74 74 73 71 68 66 64 61 59 58 55 53 51 51 54 58 59 57 56 55 54 54 53 52 50 49 49 50 51 52 53 53 51 49 48 48 49 50 52 54
71 66 63 59 56 53 50 46 42 39 38 36 35 33 32 32 30 28 28 28 28 32 36 39 44 52 60 66 68 70 76 84 90 93 97 106 111 109 107 105 103 103 100 95 91 87 82 79 77 76 75 74 71 68 65 62 60 58 55 53 52 51 53 57 58 57 55 54 54 53 53 50 49 48 49 49 50 51 50 48 46 44 45 47 47 48 50 52
71 66 62 59 57 54 49 45 41 38 36 35 33 31 30 30 28 26 25 25 26 30 34 37 43 51 56 60 62 66 73 81 87 90 93 101 109 110 108 106 104 103 100 97 93 89 86 83 81 79 76 75 72 69 66 63 61 59 56 53 53 52 53 56 57 55 54 53 52 52 51 49 48 48 48 48 48 48 48 45 42 41 43 45 46 47 48 50
72 66 62 59 58 54 49 44 41 38 35 32 31 30 28 27 26 24 23 23 24 28 31 35 42 48 53 56 58 62 69 77 84 88 90 96 105 109 109 106 105 103 101 99 95 91 88 86 84 82 79 76 73 70 68 65 62 60 56 55 54 54 55 56 55 53 51 50 50 49 48 47 48 47 47 48 47 47 46 43 41 40 42 44 45 47 47 47
73 67 62 59 58 54 49 44 40 37 33 31 29 27 25 24 23 22 20 20 22 25 28 33 39 45 49 52 54 58 66 76 82 83 86 92 99 106 109 107 106 105 103 101 97 93 89 87 86 84 81 78 74 70 68 66 63 61 58 57 56 56 57 57 55 53 51 50 49 47 45 45 45 45 47 47 46 44 43 42 41 41 43 44 45 46 46 46
73 68 63 59 58 54 49 44 40 36 33 29 27 25 23 22 20 19 18 18 20 22 25 30 35 41 46 48 50 55 65 74 78 79 84 90 94 100 106 107 107 106 104 100 97 93 91 89 88 86 83 79 75 72 70 69 66 63 62 60 59 60 60 59 57 55 52 50 48 45 43 42 41 42 44 43 42 41 40 41 42 43 44 44 44 45 45 45
74 69 63 59 57 53 48 44 40 36 32 29 26 24 23 21 18 16 16 15 17 19 22 26 31 36 42 44 47 53 62 70 72 75 82 87 90 95 101 106 109 108 105 101 97 96 94 91 90 88 84 80 77 75 74 71 68 67 66 64 62 62 62 61 58 56 53 50 46 44 41 38 37 39 40 40 39 39 40 42 44 44 44 43 43 44 45 44
74 69 64 60 57 52 47 43 39 35 31 28 27 25 23 20 17 15 13 13 14 16 19 23 27 31 37 41 44 49 58 64 67 71 78 84 87 91 96 103 109 110 106 102 99 98 96 94 92 89 85 83 81 79 77 74 72 71 70 67 65 63 62 61 58 57 54 48 45 44 40 36 36 37 37 38 39 40 42 43 45 45 45 44 44 45 45 44
74 70 64 60 57 51 46 42 38 34 30 28 27 25 23 19 15 13 11 10 11 12 15 19 22 26 31 37 41 46 53 58 61 67 75 80 84 88 92 99 107 110 107 103 100 99 98 95 93 89 87 86 84 82 80 77 75 75 72 69 66 64 62 61 58 56 51 46 46 44 40 36 34 33 34 36 40 42 42 43 45 46 46 44 44 43 44 43
75 70 65 61 58 52 45 42 38 34 30 28 27 24 21 18 14 12 10 9 8 10 13 15 17 21 26 32 37 41 47 52 58 65 72 76 79 83 86 92 101 107 105 101 100 99 97 95 93 91 89 87 85 84 82 79 78 76 73 69 66 64 62 60 57 53 48 46 48 46 41 37 32 32 34 35 39 41 40 42 45 46 45 43 42 42 43 43
75 70 65 61 59 53 45 40 37 33 29 28 27 24 20 16 14 12 10 9 7 8 10 12 14 17 22 28 33 38 43 49 55 63 69 72 76 78 82 88 96 102 102 100 99 99 98 96 95 92 89 87 84 82 80 77 76 74 70 67 65 63 60 57 54 51 48 48 49 46 42 37 32 33 34 35 38 41 41 43 43 43 42 41 41 41 41 41
76 71 65 61 59 54 46 40 36 33 29 27 25 23 21 17 14 12 11 9 7 7 8 9 11 14 19 25 30 36 41 47 54 60 65 69 73 75 79 84 91 98 102 103 102 99 98 96 93 90 87 85 83 80 77 76 76 74 70 67 65 62 58 55 53 50 49 48 49 47 41 35 31 33 34 35 39 41 42 41 39 39 39 39 39 40 40 41
76 71 66 61 59 55 48 42 38 34 30 27 25 24 22 19 16 14 11 9 6 5 6 7 9 13 18 23 28 33 39 45 52 57 60 64 69 72 76 81 86 93 100 104 103 100 98 95 92 89 86 85 83 80 79 80 79 76 72 68 64 61 59 57 55 52 51 49 49 47 40 34 32 33 36 36 37 40 40 39 37 36 37 39 40 40 41 41
76 71 66 61 59 55 49 44 40 36 32 29 28 27 24 21 18 15 12 9 6 3 3 5 8 12 16 20 25 31 37 43 48 52 55 60 65 70 75 79 83 88 97 103 103 100 98 96 94 91 88 86 84 82 81 81 78 74 70 65 63 62 60 58 56 54 52 49 48 45 39 36 34 34 37 36 35 37 38 38 36 36 37 39 40 40 41 41
76 71 67 62 58 55 50 45 41 38 34 32 31 29 27 24 20 17 14 9 6 3 0 4 8 11 15 19 24 29 35 41 45 50 53 58 64 70 75 78 80 85 94 102 103 101 98 96 95 92 89 86 85 84 83 81 77 72 66 64 64 64 61 58 56 54 50 47 46 43 38 36 35 36 37 36 34 35 36 37 37 36 38 39 40 41 40 40
77 72 67 61 58 56 50 44 41 38 36 35 32 30 29 26 22 19 15 11 8 5 3 4 8 12 16 20 24 29 34 39 44 48 52 58 64 69 73 75 78 83 92 100 103 102 99 97 96 93 91 88 87 86 85 81 76 71 68 67 66 63 58 56 55 52 49 46 45 42 37 36 36 36 38 36 34 34 36 37 36 36 39 41 41 41 39 39
78 72 66 62 58 56 51 45 41 39 37 35 32 30 30 26 22 20 17 13 10 7 5 6 8 13 17 21 24 29 33 38 43 48 52 57 63 69 72 75 77 82 90 97 101 102 100 98 97 95 93 91 88 85 82 78 75 72 70 68 65 61 58 56 54 51 48 46 44 41 37 36 35 36 38 36 34 34 36 37 37 38 41 42 40 40 39 39
79 73 67 61 58 56 53 47 42 40 37 34 32 32 32 28 22 20 17 15 12 8 6 8 8 11 17 22 25 29 34 38 42 46 50 55 62 68 72 75 78 83 88 95 100 101 100 99 97 96 94 91 86 81 77 75 73 70 68 66 63 60 58 57 54 51 48 46 44 42 38 36 36 38 38 37 35 35 36 37 38 40 41 40 39 39 39 39
80 75 69 63 58 56 54 49 44 41 38 35 34 34 32 26 21 19 18 16 13 9 6 9 9 10 14 19 24 29 34 38 42 45 49 55 61 67 71 74 78 82 87 92 97 100 100 99 98 95 91 86 82 79 78 77 75 71 67 65 63 60 58 56 53 50 48 47 45 43 39 38 38 39 39 38 36 36 37 37 38 39 39 39 39 39 40 40
81 76 71 65 59 55 52 47 43 40 38 36 35 33 30 25 21 19 17 15 14 10 7 8 10 10 11 14 20 25 30 35 40 44 49 55 61 67 71 75 79 82 85 90 96 100 100 99 97 92 88 85 84 84 83 81 78 75 71 68 64 61 58 55 51 49 48 47 45 42 39 38 39 39 39 38 36 35 37 38 38 38 38 38 38 39 40 40
81 77 72 66 60 55 51 47 41 37 35 34 33 32 29 25 21 19 17 15 14 12 8 8 10 11 11 12 16 21 26 32 37 42 47 54 61 67 71 75 79 83 86 91 97 100 100 99 95 92 91 91 90 89 86 83 80 77 73 69 64 60 58 55 53 51 49 47 44 42 40 39 39 39 39 38 35 35 37 39 38 37 36 37 38 39 40 40
82 76 71 66 60 55 51 48 43 39 36 34 33 32 30 25 21 19 17 14 14 13 10 7 8 11 13 14 16 20 24 29 35 42 47 53 59 65 70 75 79 84 88 92 96 99 99 98 96 95 95 95 94 92 89 84 79 74 71 68 64 61 60 57 55 53 50 46 44 42 41 40 40 40 40 38 36 35 36 39 38 36 36 38 38 39 40 40
82 75 70 65 59 55 52 50 46 41 38 36 33 33 30 25 21 19 17 14 12 13 12 9 5 7 11 15 17 20 24 28 33 40 47 54 58 63 69 75 80 85 88 91 94 97 98 98 97 95 93 91 88 84 80 76 72 70 69 67 65 63 60 58 56 53 50 46 44 42 42 41 41 41 40 38 37 35 35 37 38 37 38 40 39 40 40 40
83 76 70 65 60 55 52 50 47 42 38 35 33 32 30 25 21 18 16 14 11 11 13 11 7 4 8 12 15 19 24 28 34 40 47 53 59 64 70 76 81 85 87 88 91 94 95 95 94 92 89 86 81 76 74 72 70 68 67 66 64 63 61 59 56 53 50 47 45 43 42 41 41 41 41 39 38 36 36 37 38 39 40 41 40 39 40 40
85 77 71 66 61 56 51 49 45 41 37 34 32 30 28 24 21 18 16 14 11 10 12 12 9 8 10 11 14 19 24 29 34 41 47 53 59 65 71 76 80 82 84 86 88 89 89 90 90 88 86 84 82 79 77 74 72 70 68 66 64 63 61 59 56 52 50 48 47 45 43 43 42 42 41 40 39 38 36 37 39 42 43 42 40 39 39 39
87 79 72 67 62 56 51 48 45 40 36 33 31 29 26 23 21 18 15 14 12 11 11 11 9 10 13 14 15 19 25 29 35 41 48 55 60 65 70 73 75 78 81 83 83 83 84 85 85 85 83 81 80 79 77 74 73 71 69 66 63 61 60 58 55 53 51 49 47 46 45 44 43 43 42 41 40 38 36 36 39 42 43 42 40 38 37 39
89 81 73 68 62 57 52 48 45 41 37 34 31 28 25 23 21 20 17 14 12 12 11 9 7 8 13 17 18 21 26 31 36 43 49 55 60 64 67 69 71 74 76 77 79 80 81 81 82 82 81 79 77 76 75 73 72 71 69 67 64 61 59 57 55 53 50 48 47 46 45 44 43 43 43 41 40 38 35 35 38 41 42 41 40 38 38 39
90 82 74 68 62 57 52 47 45 42 38 34 31 28 25 23 21 20 19 16 12 12 12 10 7 7 11 16 20 23 28 34 38 43 49 53 58 62 63 65 69 72 73 74 76 77 78 79 80 80 79 77 75 74 73 72 71 70 69 67 65 62 59 57 55 52 49 48 47 46 45 45 44 44 44 43 40 38 36 35 38 40 41 40 40 40 39 40
88 82 75 68 63 58 53 47 43 40 37 33 30 28 25 22 21 21 20 18 14 10 10 10 9 7 9 15 20 24 29 35 40 45 49 53 56 58 60 64 67 69 71 73 74 76 77 78 78 78 78 77 75 73 71 71 71 70 68 67 65 63 60 57 55 52 50 48 47 47 47 47 47 47 46 45 42 40 37 37 39 41 42 42 42 42 41 41
87 83 76 69 63 58 53 47 42 39 36 32 29 27 25 22 21 20 19 18 16 11 8 10 11 9 8 13 20 24 29 35 40 45 49 52 54 56 59 63 66 67 69 72 74 75 76 76 75 75 76 75 73 72 70 70 69 68 67 66 65 63 60 58 55 53 51 49 48 49 49 49 49 48 47 46 44 41 39 38 40 42 44 44 44 43 42 42
Wind_Direction
283 282 280 278 277 276 274 273 271 269 268 266 265 263 261 260 259 258 256 254 252 251 250 250 249 249 248 248 247 246 246 246 245 244 244 244 243 242 243 243 243 242 241 241 240 239 238 237 237 238 237 236 236 237 237 236 236 236 236 236 233 231 231 231 231 231 231 233 238 241 240 240 241 241 242 246 249 249 249 249 249 249 249 250 250 251 250 250
285 283 282 280 278 277 275 273 272 270 268 266 265 263 262 261 259 258 257 256 254 253 251 250 249 249 249 248 248 247 246 246 245 245 244 243 244 243 243 243 242 242 242 241 240 239 238 237 237 238 238 237 236 236 236 236 236 236 236 234 231 230 230 230 230 230 231 233 237 240 240 239 240 241 241 243 246 248 249 249 248 248 248 248 248 248 248 248
286 284 283 281 280 278 277 275 273 271 270 268 266 264 262 261 259 258 256 255 254 253 253 251 250 249 248 248 248 247 247 246 246 245 243 242 243 243 243 243 242 241 241 241 240 239 239 238 238 237 238 238 237 237 236 236 236 236 235 233 230 229 228 228 229 230 231 233 236 239 240 239 239 241 241 241 244 246 248 248 248 247 247 247 246 245 245 245
287 286 284 283 281 280 278 276 275 273 271 269 268 266 263 261 259 257 256 255 253 253 252 252 251 250 249 247 247 246 246 245 245 245 243 241 242 242 242 243 242 241 240 240 240 239 239 239 238 237 237 237 237 237 237 237 236 235 234 232 230 229 227 227 229 230 231 232 235 238 239 239 239 240 241 241 242 245 246 248 248 247 247 246 246 244 243 242
289 287 286 284 282 281 279 277 275 274 272 270 268 266 264 263 260 258 256 254 253 251 251 250 250 250 249 248 246 245 244 244 243 244 243 241 241 241 241 242 242 241 239 239 239 239 238 238 238 237 237 237 237 237 237 237 236 234 233 230 229 229 228 227 228 229 230 231 234 237 238 239 239 239 241 241 241 243 245 246 247 247 247 246 245 244 243 241
288 287 286 284 283 282 280 278 277 275 273 271 269 267 265 263 261 259 257 255 253 251 249 249 248 248 248 247 246 245 244 243 242 242 243 242 241 240 240 240 241 240 239 238 238 238 237 237 237 237 236 236 236 236 236 236 234 233 231 229 229 229 228 228 229 229 230 231 233 235 237 238 239 239 240 241 241 242 244 244 246 247 246 246 244 243 243 242
288 287 286 285 283 282 281 279 278 276 274 271 269 267 265 263 261 259 257 255 253 251 249 248 246 246 246 246 245 244 243 242 241 241 242 242 241 241 240 239 239 239 238 237 237 237 236 236 236 236 236 236 236 235 235 235 234 232 231 230 228 228 228 229 230 230 231 231 233 234 236 238 240 240 240 241 241 242 243 243 244 246 245 245 244 243 242 242
288 288 286 285 284 283 281 280 278 276 274 272 269 267 265 263 262 260 258 255 253 251 250 248 246 244 244 244 244 243 242 241 241 241 241 241 241 240 239 238 238 238 237 236 236 236 236 235 235 236 236 235 235 234 234 235 233 231 230 230 229 227 228 230 231 231 232 232 233 234 235 237 239 239 240 241 242 242 243 243 243 245 245 244 244 242 241 241
289 288 287 286 284 283 281 280 278 276 274 272 270 268 266 264 262 260 259 257 255 252 250 248 246 244 243 242 241 241 241 241 241 240 239 239 239 239 238 237 237 237 236 235 236 235 235 235 234 234 234 234 234 233 234 234 233 231 230 230 229 227 228 230 231 232 233 233 234 235 236 237 238 239 239 240 241 242 243 243 244 244 244 244 243 242 241 241
289 288 287 286 285 284 282 281 280 278 276 274 272 270 268 266 263 261 259 258 256 254 252 249 247 245 243 241 240 240 240 240 240 239 237 237 237 237 237 236 236 236 235 235 235 235 235 234 233 233 232 232 233 234 234 234 233 231 230 230 229 227 228 230 232 233 234 235 235 236 236 238 238 239 239 240 241 242 243 244 244 244 244 244 243 243 242 242
289 289 288 287 286 285 284 283 282 280 278 275 273 271 268 266 264 262 260 258 257 255 253 251 248 245 243 241 239 239 239 239 239 237 236 235 235 235 236 236 235 235 235 235 235 234 234 233 233 232 232 232 233 233 234 233 232 231 229 230 229 228 229 230 232 234 235 235 236 236 237 238 239 240 240 240 241 241 242 243 244 244 244 244 244 244 243 243
290 290 290 289 289 288 287 285 283 281 279 276 274 272 269 267 265 263 261 259 257 255 253 252 250 247 244 241 239 238 237 237 237 236 235 234 233 233 234 234 234 233 233 234 234 233 233 233 232 232 231 232 232 232 233 232 232 231 230 230 231 229 230 231 233 234 235 235 236 236 237 239 240 240 239 239 240 240 241 242 242 243 243 243 243 243 243 243
293 293 293 292 292 290 288 286 284 282 280 278 276 274 272 270 267 265 262 259 256 254 252 250 249 247 245 241 238 238 237 236 235 234 234 234 232 232 232 232 232 231 231 231 232 232 232 232 232 231 231 231 231 232 232 232 232 231 230 229 230 230 230 232 233 234 234 235 236 236 237 239 240 239 238 238 238 239 240 240 241 242 242 243 243 243 243 243
297 298 297 296 295 292 290 288 285 283 281 280 278 277 275 273 270 267 264 260 256 253 251 249 247 246 244 241 239 238 237 235 235 233 232 233 232 230 230 230 230 230 229 229 229 230 230 230 230 230 230 230 231 231 231 231 231 231 230 228 230 231 230 232 234 234 235 235 236 236 235 238 239 239 238 238 238 238 238 239 240 241 241 242 242 242 242 242
304 304 302 300 298 295 293 290 288 286 283 282 281 280 277 274 272 268 265 261 257 253 250 248 246 244 242 240 239 239 237 235 234 232 230 230 231 229 227 227 229 229 228 227 227 228 228 228 228 228 229 228 229 230 230 231 230 231 231 230 232 233 231 233 234 234 235 235 236 235 234 236 238 238 237 237 238 238 237 238 239 240 240 241 241 241 241 242
311 309 307 304 301 298 296 293 290 288 286 285 284 282 278 275 273 270 266 261 257 253 249 246 244 242 239 238 239 239 237 234 233 232 229 228 229 229 226 225 226 227 227 227 226 226 227 227 226 226 226 226 227 228 228 229 229 230 231 230 231 233 232 234 236 235 236 236 236 234 233 236 238 237 237 237 236 237 236 237 238 239 239 240 240 240 241 242
317 314 311 309 305 302 298 295 292 289 288 288 287 283 279 277 274 271 267 262 257 252 248 245 242 239 237 236 237 237 236 234 233 231 228 227 227 228 226 224 223 224 225 225 225 225 226 225 225 224 225 225 226 227 228 229 230 231 231 230 231 233 233 235 236 235 236 237 236 234 232 235 237 236 236 236 236 236 236 236 237 237 238 239 240 240 241 241
321 318 316 313 309 306 302 299 296 293 292 292 288 284 281 279 276 272 267 263 257 252 247 243 240 237 234 233 233 234 234 233 232 230 228 226 226 226 226 224 223 222 223 223 223 224 224 224 223 223 224 225 227 229 230 230 231 231 230 229 230 231 232 234 235 235 236 237 236 234 232 234 236 236 235 235 235 236 236 236 237 238 239 240 240 241 242 242
324 322 320 317 314 310 306 303 299 296 296 295 291 285 282 280 276 272 268 263 257 252 247 242 238 235 232 231 231 231 232 231 231 230 227 226 225 225 224 224 223 222 222 222 222 222 222 222 223 223 224 226 227 229 228 227 227 228 227 226 226 226 228 230 232 233 234 235 235 234 232 234 236 236 235 235 235 235 236 237 238 239 239 240 241 242 244 244
328 326 324 321 319 315 311 307 303 300 299 298 295 289 285 282 277 272 268 263 257 252 246 241 236 232 230 230 229 229 229 229 230 229 227 225 225 224 223 223 223 222 221 221 221 221 221 221 222 222 223 223 224 225 225 225 225 225 225 225 225 225 226 228 230 231 232 234 234 234 233 234 236 236 236 235 235 236 237 238 238 239 240 242 243 244 245 245
332 330 328 325 323 320 316 312 308 304 302 301 297 293 290 286 280 274 268 262 258 251 245 240 234 230 228 229 228 227 226 226 227 228 227 225 224 223 222 222 223 222 220 220 220 220 220 219 219 219 220 220 221 222 223 223 224 225 225 224 225 225 226 229 231 231 232 233 234 234 234 234 236 237 237 237 237 237 238 239 239 241 242 244 244 245 245 245
335 334 332 329 327 325 321 317 313 308 305 303 300 296 292 288 284 277 270 263 257 250 244 238 232 228 226 227 226 224 224 224 225 225 225 224 223 223 222 221 221 221 220 219 219 220 219 218 218 218 218 219 220 221 222 223 223 224 225 225 225 225 226 229 232 233 234 235 236 236 236 235 236 238 238 238 238 239 240 240 241 242 244 244 244 244 244 244
338 338 335 333 332 330 326 321 318 313 310 307 303 299 294 290 286 280 273 265 256 249 242 235 229 227 226 226 224 222 220 221 222 223 223 223 223 222 221 220 220 220 220 218 218 218 218 217 218 218 218 218 219 220 222 223 223 225 226 226 226 226 227 230 232 234 235 237 238 238 238 237 238 239 240 240 240 241 242 243 243 244 244 244 243 242 242 242
341 341 339 336 335 333 330 326 323 319 316 313 308 303 298 293 288 282 274 266 255 247 241 233 227 226 226 226 224 220 218 219 220 220 220 220 221 221 220 220 219 219 219 219 217 216 215 215 217 217 218 218 219 220 222 223 224 226 227 227 227 227 228 230 231 232 233 235 237 238 239 239 239 240 241 242 242 243 244 245 246 245 244 243 243 243 243 242
344 344 343 340 338 336 333 330 328 325 322 318 313 308 302 295 290 282 274 264 252 243 239 233 227 226 226 225 223 218 216 217 218 218 217 218 219 220 219 219 218 218 218 218 217 215 214 214 215 216 217 218 218 219 220 221 222 224 225 226 227 227 228 230 231 232 233 234 236 237 238 238 238 239 240 243 244 245 245 246 246 246 246 245 243 243 244 243
346 347 346 343 340 339 337 335 333 330 326 322 317 311 305 298 291 283 272 262 250 242 237 232 229 227 225 224 220 216 215 216 217 216 215 215 217 218 218 217 217 217 217 217 217 215 214 214 215 216 216 217 218 218 219 220 221 222 223 224 225 226 227 229 231 232 232 234 235 237 237 237 237 237 238 240 242 244 245 245 245 245 245 245 243 243 243 244
348 349 349 346 343 341 339 339 337 334 330 326 322 315 309 302 293 284 272 262 252 244 238 233 231 229 227 224 218 214 213 215 216 214 213 214 214 215 216 215 216 216 216 216 215 215 214 214 215 215 216 217 217 218 218 219 220 221 222 223 223 225 226 228 229 230 231 232 233 235 237 237 238 238 239 240 242 244 245 244 244 244 244 243 243 243 243 243
350 350 350 349 346 344 342 342 340 338 335 331 327 322 316 308 298 287 274 263 255 248 239 234 233 231 229 225 218 213 212 215 215 211 211 212 212 213 213 213 214 215 215 214 214 214 214 214 215 215 216 217 217 218 218 218 218 219 221 221 222 224 226 227 228 229 230 231 233 235 237 239 240 241 241 242 243 245 244 243 242 242 242 243 243 243 244 243
351 352 352 351 349 346 344 344 343 341 339 336 335 332 325 315 304 291 277 266 258 250 242 236 233 232 231 227 219 213 212 215 214 210 210 211 210 210 210 211 212 213 213 213 212 213 213 213 214 215 215 215 216 217 218 218 217 218 219 220 221 223 226 227 229 230 230 231 233 236 239 240 241 241 241 241 241 241 240 239 239 240 241 242 243 243 244 244
353 353 353 353 351 348 346 346 345 344 342 342 343 340 331 321 312 299 283 271 261 253 244 237 234 233 232 229 221 214 212 214 213 211 210 210 209 209 208 208 210 212 212 211 210 211 212 212 213 214 214 214 215 216 217 217 216 217 218 219 221 223 226 228 229 230 232 234 236 239 241 241 241 242 242 240 238 237 236 235 236 237 239 240 241 242 243 244
354 354 354 354 353 351 349 348 347 346 346 348 348 343 333 324 318 309 295 281 268 257 246 238 235 233 231 228 222 215 212 212 211 210 210 210 209 208 206 206 208 210 210 209 209 210 211 212 212 213 213 214 214 215 216 216 216 217 218 219 221 223 225 227 228 231 233 235 239 240 241 242 242 244 243 240 238 237 237 237 236 236 237 239 241 243 244 245
355 355 355 355 354 353 352 351 350 349 351 352 350 345 335 328 326 322 310 299 284 265 250 240 234 232 230 228 223 216 212 210 208 209 210 210 208 207 205 205 207 208 209 208 208 209 211 211 212 212 213 214 215 215 216 217 217 219 220 221 222 224 226 228 229 232 233 235 238 240 241 241 240 242 241 239 238 238 238 238 237 237 238 239 241 243 244 245
356 356 356 355 355 354 354 354 353 352 355 357 352 345 339 337 337 334 326 318 303 277 257 241 230 226 225 224 221 214 210 208 206 207 208 208 207 206 204 204 205 206 207 208 209 209 210 211 212 212 213 214 215 216 218 219 221 223 223 224 225 227 229 230 231 232 232 234 237 239 240 240 239 241 242 239 237 237 237 238 238 239 239 240 242 243 244 244
357 357 357 356 355 355 355 357 357 357 358 0 357 351 349 348 347 346 341 332 318 291 265 243 227 220 218 219 216 211 207 204 204 205 206 205 205 204 203 203 203 203 204 206 208 209 210 211 212 212 212 214 215 217 217 219 221 223 223 223 224 226 228 229 230 231 231 233 236 238 239 239 239 243 245 241 238 237 238 239 241 241 240 240 241 242 243 242
357 358 358 357 356 356 356 358 360 360 360 2 2 0 359 357 356 356 352 345 333 307 270 242 223 213 211 212 211 207 204 202 202 203 204 203 202 202 201 201 202 201 202 205 207 208 209 210 211 212 212 213 214 216 217 218 219 220 221 222 223 224 225 226 226 227 228 230 233 236 237 237 237 241 243 243 241 240 239 241 243 243 241 239 238 240 241 241
358 358 358 358 358 357 357 359 1 1 2 5 6 5 4 4 4 3 1 359 356 338 270 226 211 205 204 204 204 203 201 200 199 200 200 200 199 199 199 200 200 199 201 204 206 207 208 208 210 211 211 212 213 214 217 219 220 221 221 221 222 224 225 225 226 226 227 228 231 233 234 233 233 237 242 244 244 243 240 240 242 243 242 240 238 238 240 241
359 359 359 358 358 358 358 0 2 2 4 7 8 8 7 7 8 9 8 10 18 29 119 188 190 192 192 192 194 196 197 197 196 196 196 196 196 196 197 197 197 197 199 202 205 206 207 208 209 210 210 211 212 213 215 217 219 220 221 221 222 223 223 225 226 227 228 229 231 233 233 231 231 235 241 244 245 243 240 240 242 243 244 242 239 238 238 240
359 360 360 359 359 359 359 1 3 4 6 7 7 10 10 8 11 14 15 18 30 50 91 149 170 178 179 182 186 190 192 193 192 192 193 193 193 194 195 195 194 195 198 200 203 205 206 207 209 209 210 210 211 212 214 216 217 217 218 220 221 223 224 225 226 228 229 229 232 234 233 232 231 234 240 243 243 242 238 238 240 242 243 242 239 238 238 239
359 0 1 360 359 359 360 2 5 7 8 7 7 12 12 10 14 19 22 26 33 52 90 127 158 171 172 174 180 184 187 189 189 189 190 191 191 191 192 192 191 193 196 198 201 204 206 207 208 209 209 210 211 212 214 216 217 217 218 219 220 221 222 224 226 227 228 229 230 232 232 232 231 233 238 240 241 239 237 236 238 241 243 243 242 240 238 238
359 0 2 1 0 0 0 2 6 9 9 7 10 14 12 9 14 22 28 33 35 46 90 119 142 165 171 172 175 180 183 186 187 187 188 189 189 189 189 189 189 191 194 197 199 202 205 207 208 209 209 210 211 211 213 215 217 219 220 221 221 222 222 223 224 225 226 227 229 229 229 229 229 230 235 238 238 237 235 234 237 241 244 246 245 243 240 238
359 360 1 2 2 1 1 3 6 9 9 10 13 14 10 7 14 24 31 37 38 42 81 113 128 152 169 173 175 179 181 183 184 185 185 187 188 187 187 187 188 189 192 195 198 201 204 206 208 209 209 210 211 211 212 213 214 215 218 220 221 222 223 224 225 225 226 227 227 227 227 227 227 229 233 237 238 238 235 234 237 241 244 246 246 245 243 241
359 360 1 2 2 2 2 4 8 9 9 12 15 14 10 8 16 26 34 41 43 43 68 103 117 134 156 172 177 179 182 183 182 183 184 185 186 186 185 186 187 188 190 193 196 200 202 205 208 208 209 209 210 211 211 211 211 211 212 215 217 219 221 224 225 226 227 227 227 227 226 226 227 229 232 236 238 238 236 234 236 240 244 245 246 246 245 244
360 1 1 1 1 1 2 4 8 11 12 14 17 15 12 12 19 28 35 45 50 46 56 91 111 126 142 163 177 179 181 183 182 182 183 183 184 184 184 185 186 187 189 192 195 198 201 204 206 207 208 208 209 210 211 211 211 210 211 212 213 215 218 220 222 224 225 226 226 227 226 226 228 229 231 235 237 237 236 235 235 239 243 244 245 245 245 245
0 1 1 1 1 1 2 4 7 10 14 16 18 18 15 14 22 31 35 45 57 57 54 72 110 134 145 157 173 178 179 182 182 181 180 182 183 183 183 184 186 187 188 191 194 197 200 202 204 206 208 209 209 209 210 210 210 211 212 212 212 213 215 216 219 221 222 224 224 225 225 226 227 228 229 233 236 237 237 237 237 238 241 242 241 242 244 244
1 1 1 1 1 1 3 4 6 10 14 15 17 19 16 14 23 34 38 42 59 73 70 62 80 134 149 157 169 175 176 178 181 180 179 179 180 182 183 184 186 187 189 191 193 196 198 201 203 205 208 211 212 212 212 212 212 212 213 214 214 214 215 216 218 219 220 222 223 224 225 226 227 227 228 231 235 237 238 237 236 237 240 241 241 242 243 244
0 1 1 1 2 2 3 4 6 9 13 14 17 20 17 14 21 33 42 44 54 80 88 82 79 124 149 157 167 172 172 175 177 178 178 178 178 181 184 186 188 188 188 190 193 195 198 200 202 204 206 209 212 213 213 213 213 214 215 216 216 216 216 217 218 219 219 220 221 222 224 226 226 227 228 230 234 238 240 238 236 237 240 242 242 243 244 244
0 0 1 2 2 3 3 4 6 9 12 14 17 20 18 16 19 29 41 48 52 70 90 98 107 134 147 151 166 172 170 173 176 176 176 177 178 182 185 188 189 188 188 190 192 195 197 199 202 204 205 207 208 209 211 211 212 213 214 216 217 217 218 219 220 219 219 220 220 220 223 224 225 227 227 229 233 237 241 240 237 238 241 243 244 245 245 244
1 0 1 2 3 3 3 4 5 8 12 16 18 19 19 19 21 25 35 47 56 66 80 95 116 142 147 148 162 173 169 170 174 174 175 177 180 183 186 188 189 189 189 190 191 193 196 199 201 203 205 206 207 208 208 209 211 211 212 213 215 217 219 220 221 220 220 221 220 220 222 224 225 225 226 228 232 237 241 242 240 240 243 245 246 246 244 243
1 0 1 2 2 3 3 3 4 7 12 16 18 19 19 21 24 24 28 39 55 67 74 83 107 140 149 148 158 171 169 168 172 175 176 178 180 184 187 188 189 189 190 189 190 192 195 197 200 202 204 206 208 209 209 209 210 211 212 212 213 215 217 220 221 221 221 222 222 222 223 225 225 225 226 228 231 235 239 241 239 239 242 244 245 244 242 241
0 0 0 1 2 3 3 4 4 7 11 15 18 19 19 22 27 28 27 30 42 63 74 80 96 133 152 151 157 168 169 167 171 174 176 179 182 184 186 187 189 189 189 189 189 191 193 197 199 202 203 204 206 208 210 209 210 211 212 212 213 213 215 218 220 221 222 223 223 222 224 226 226 225 226 227 229 232 235 237 235 236 239 241 242 242 241 240
360 360 360 1 2 3 3 4 4 6 11 15 18 20 20 22 30 33 30 27 30 50 76 88 97 122 152 155 158 167 170 168 170 174 176 180 182 184 185 186 188 189 188 188 189 190 193 196 199 201 203 204 205 207 209 211 211 211 212 213 213 214 215 217 219 220 221 222 222 222 223 224 224 224 225 226 228 231 234 235 234 233 235 238 240 241 241 241
359 360 360 0 1 2 3 3 4 5 9 15 19 22 23 24 31 37 36 32 28 34 66 96 106 116 145 159 161 166 170 170 171 174 177 180 182 183 184 185 187 188 188 188 189 190 193 196 198 201 203 204 205 206 208 211 212 212 212 213 214 215 215 217 217 218 219 220 221 222 222 223 224 224 225 228 230 232 235 236 236 234 234 236 239 240 241 242
Height
10625 10623 10622 10620 10618 10616 10614 10613 10611 10610 10609 10608 10607 10607 10606 10605 10605 10605 10606 10606 10607 10608 10608 10610 10612 10614 10617 10621 10625 10628 10631 10632 10634 10638 10639 10638 10643 10648 10648 10651 10655 10658 10660 10661 10662 10664 10667 10670 10673 10676 10681 10685 10690 10693 10697 10701 10704 10708 10715 10725 10736 10742 10744 10746 10746 10745 10744 10739 10730 10728 10733 10739 10744 10746 10749 10750 10755 10759 10763 10771 10774 10778 10781 10783 10786 10789 10792 10794
10619 10617 10615 10613 10611 10609 10607 10605 10604 10602 10600 10599 10598 10597 10596 10596 10596 10596 10596 10596 10597 10597 10598 10600 10601 10605 10607 10612 10615 10619 10623 10624 10627 10629 10628 10632 10637 10640 10641 10645 10648 10651 10653 10653 10654 10658 10661 10665 10668 10672 10675 10680 10684 10687 10690 10695 10699 10705 10712 10721 10730 10734 10736 10737 10736 10735 10735 10732 10725 10722 10727 10736 10740 10741 10746 10750 10752 10755 10760 10765 10769 10773 10775 10778 10782 10785 10788 10790
10611 10609 10607 10605 10603 10601 10599 10597 10595 10593 10591 10590 10588 10587 10586 10585 10585 10585 10585 10586 10586 10586 10587 10589 10591 10594 10597 10602 10606 10610 10613 10615 10618 10617 10618 10626 10629 10631 10634 10637 10640 10643 10645 10644 10648 10653 10656 10660 10664 10668 10670 10675 10679 10681 10685 10690 10695 10701 10707 10716 10724 10725 10727 10728 10728 10729 10728 10724 10719 10718 10723 10733 10736 10737 10742 10748 10750 10753 10756 10760 10765 10769 10770 10773 10777 10781 10784 10786
10603 10601 10598 10596 10594 10591 10589 10587 10585 10583 10581 10579 10577 10576 10575 10574 10574 10573 10573 10574 10575 10576 10576 10578 10580 10583 10586 10592 10595 10599 10602 10605 10607 10604 10609 10618 10619 10622 10626 10629 10632 10635 10637 10638 10642 10649 10652 10655 10659 10662 10665 10670 10673 10675 10681 10686 10690 10695 10702 10711 10715 10715 10717 10720 10720 10720 10718 10716 10715 10715 10721 10728 10731 10734 10737 10743 10749 10750 10753 10757 10760 10763 10765 10769 10773 10777 10780 10782
10595 10592 10589 10586 10583 10581 10578 10576 10573 10571 10569 10567 10565 10564 10562 10561 10561 10560 10561 10561 10562 10563 10565 10566 10568 10571 10575 10580 10584 10588 10590 10594 10596 10593 10599 10607 10609 10614 10617 10620 10623 10627 10630 10633 10637 10643 10647 10650 10653 10656 10660 10664 10667 10671 10677 10680 10683 10689 10697 10702 10704 10707 10711 10713 10711 10710 10709 10710 10712 10714 10718 10722 10725 10731 10734 10739 10747 10748 10750 10755 10756 10758 10760 10765 10770 10773 10775 10777
10587 10583 10580 10577 10573 10570 10567 10564 10561 10558 10555 10552 10550 10549 10547 10546 10546 10546 10546 10546 10548 10549 10552 10554 10556 10560 10563 10567 10572 10576 10579 10583 10583 10581 10588 10596 10600 10605 10609 10612 10615 10619 10623 10627 10631 10635 10640 10644 10647 10651 10655 10658 10662 10666 10671 10672 10676 10684 10689 10694 10697 10701 10704 10704 10703 10703 10703 10707 10709 10710 10713 10716 10721 10728 10730 10736 10744 10745 10748 10751 10751 10752 10756 10761 10765 10768 10771 10773
10578 10574 10571 10566 10562 10559 10554 10551 10547 10543 10540 10537 10534 10532 10530 10529 10528 10529 10529 10530 10532 10533 10537 10539 10543 10547 10551 10555 10558 10564 10568 10567 10567 10572 10579 10587 10592 10596 10601 10604 10606 10611 10616 10620 10624 10628 10633 10638 10641 10645 10649 10653 10656 10661 10663 10664 10670 10679 10684 10688 10691 10695 10697 10696 10697 10697 10699 10703 10704 10705 10710 10715 10719 10723 10727 10734 10740 10742 10744 10747 10747 10748 10753 10757 10760 10763 10766 10768
10569 10565 10560 10555 10551 10546 10541 10536 10531 10527 10523 10519 10517 10513 10511 10510 10509 10509 10510 10512 10514 10516 10520 10523 10529 10533 10538 10542 10546 10553 10552 10548 10556 10567 10573 10579 10583 10586 10592 10595 10598 10603 10609 10613 10617 10621 10626 10631 10636 10639 10643 10647 10650 10654 10656 10657 10665 10674 10678 10681 10685 10689 10690 10689 10690 10692 10694 10698 10699 10703 10710 10712 10713 10717 10725 10732 10736 10738 10740 10742 10744 10745 10749 10752 10755 10759 10761 10763
10559 10554 10548 10543 10537 10531 10525 10519 10514 10509 10504 10500 10496 10493 10491 10489 10489 10488 10489 10491 10493 10498 10502 10507 10512 10517 10524 10528 10534 10539 10533 10535 10551 10560 10565 10569 10572 10576 10581 10586 10590 10595 10601 10606 10610 10615 10620 10625 10630 10632 10637 10640 10642 10646 10649 10652 10662 10670 10672 10674 10678 10683 10683 10681 10684 10687 10689 10693 10696 10703 10707 10706 10707 10714 10723 10730 10732 10734 10735 10738 10740 10742 10744 10747 10750 10753 10755 10759
10548 10542 10535 10528 10521 10514 10507 10500 10494 10488 10483 10478 10474 10471 10469 10467 10466 10466 10468 10470 10473 10478 10482 10489 10495 10500 10509 10512 10521 10524 10516 10527 10541 10546 10553 10556 10559 10566 10571 10577 10582 10587 10594 10599 10603 10608 10613 10617 10619 10623 10629 10632 10637 10642 10644 10650 10658 10663 10665 10668 10672 10675 10676 10676 10680 10683 10686 10690 10695 10700 10701 10699 10703 10712 10722 10727 10727 10729 10731 10734 10737 10738 10740 10742 10745 10748 10751 10755
10536 10528 10520 10512 10504 10495 10487 10479 10472 10465 10459 10454 10450 10447 10445 10444 10443 10443 10447 10450 10454 10458 10462 10469 10476 10484 10491 10497 10508 10506 10502 10518 10526 10531 10540 10543 10550 10557 10562 10569 10574 10580 10586 10591 10596 10600 10604 10607 10610 10616 10623 10628 10633 10637 10639 10646 10651 10655 10660 10662 10665 10669 10670 10673 10676 10679 10683 10687 10691 10694 10694 10695 10703 10712 10720 10721 10722 10725 10727 10730 10732 10734 10735 10737 10740 10743 10746 10750
10523 10514 10505 10495 10485 10476 10466 10457 10449 10441 10435 10429 10425 10423 10421 10421 10420 10421 10425 10431 10435 10439 10444 10449 10455 10466 10473 10484 10493 10484 10490 10506 10508 10517 10527 10532 10541 10547 10553 10561 10565 10571 10577 10582 10587 10590 10594 10597 10602 10611 10618 10622 10627 10630 10634 10641 10645 10650 10655 10658 10660 10664 10667 10670 10672 10674 10678 10683 10685 10687 10690 10696 10703 10709 10712 10714 10717 10720 10722 10725 10727 10728 10729 10732 10735 10737 10742 10746
10509 10499 10488 10477 10466 10455 10445 10436 10427 10420 10413 10407 10404 10401 10400 10400 10400 10401 10405 10411 10415 10418 10424 10428 10436 10446 10455 10471 10472 10463 10480 10493 10491 10505 10515 10521 10533 10539 10544 10550 10554 10560 10566 10571 10576 10580 10585 10589 10597 10606 10611 10616 10620 10624 10630 10636 10641 10645 10650 10653 10654 10659 10664 10666 10666 10669 10674 10677 10678 10682 10690 10695 10697 10700 10704 10707 10710 10714 10717 10719 10720 10722 10724 10727 10729 10732 10737 10738
10494 10482 10470 10457 10446 10435 10425 10417 10408 10401 10394 10389 10385 10383 10382 10381 10381 10383 10386 10391 10395 10397 10403 10408 10418 10427 10439 10455 10449 10446 10469 10476 10476 10492 10503 10513 10523 10529 10535 10539 10543 10550 10555 10561 10565 10571 10577 10582 10592 10599 10605 10612 10614 10619 10626 10631 10636 10639 10643 10648 10651 10656 10662 10660 10660 10665 10669 10671 10672 10679 10689 10689 10688 10693 10698 10701 10704 10708 10711 10712 10714 10716 10718 10720 10723 10728 10731 10731
10477 10464 10451 10439 10428 10418 10409 10400 10392 10385 10378 10373 10370 10367 10365 10363 10364 10365 10368 10373 10375 10378 10383 10390 10400 10407 10423 10437 10427 10431 10456 10461 10462 10477 10491 10502 10509 10514 10522 10528 10535 10541 10546 10552 10557 10564 10570 10577 10588 10594 10601 10606 10607 10614 10621 10626 10631 10634 10640 10648 10650 10654 10657 10654 10655 10661 10663 10664 10666 10675 10684 10682 10681 10687 10692 10695 10699 10702 10705 10707 10709 10709 10711 10714 10717 10722 10724 10726
10458 10445 10434 10423 10413 10403 10394 10386 10378 10370 10363 10359 10356 10353 10350 10348 10348 10349 10352 10355 10357 10362 10366 10373 10381 10388 10406 10416 10409 10417 10438 10445 10447 10460 10478 10491 10494 10499 10511 10520 10526 10531 10537 10543 10550 10557 10564 10574 10583 10588 10594 10598 10602 10610 10615 10620 10626 10631 10638 10645 10646 10649 10652 10649 10651 10656 10657 10658 10663 10673 10679 10676 10676 10681 10685 10689 10692 10695 10699 10701 10702 10702 10704 10707 10712 10716 10719 10724
10441 10429 10419 10409 10399 10389 10381 10373 10366 10357 10350 10347 10344 10340 10336 10335 10335 10335 10337 10339 10342 10345 10350 10357 10363 10372 10390 10397 10393 10400 10416 10428 10434 10446 10465 10476 10480 10487 10501 10511 10514 10520 10526 10533 10544 10552 10560 10570 10577 10582 10588 10594 10599 10605 10611 10619 10625 10630 10636 10641 10643 10645 10647 10645 10647 10650 10650 10653 10660 10667 10672 10670 10670 10675 10679 10682 10686 10689 10692 10694 10694 10696 10699 10702 10707 10711 10715 10721
10425 10415 10406 10396 10387 10377 10369 10361 10354 10345 10339 10336 10333 10329 10325 10323 10323 10323 10324 10325 10328 10331 10335 10342 10347 10359 10373 10375 10374 10380 10396 10412 10418 10431 10450 10461 10467 10477 10491 10500 10503 10510 10517 10526 10538 10546 10555 10563 10569 10576 10583 10590 10597 10604 10612 10620 10623 10626 10630 10634 10637 10639 10641 10640 10640 10643 10645 10649 10654 10660 10665 10665 10664 10669 10673 10677 10680 10683 10685 10687 10689 10692 10695 10699 10703 10707 10712 10718
10412 10402 10393 10384 10375 10366 10358 10351 10343 10335 10329 10326 10322 10319 10315 10314 10312 10312 10313 10313 10316 10319 10323 10329 10334 10346 10355 10354 10356 10364 10380 10395 10402 10417 10437 10447 10456 10467 10481 10488 10494 10502 10510 10521 10532 10539 10549 10556 10563 10573 10583 10590 10596 10602 10609 10612 10615 10617 10621 10625 10628 10631 10633 10632 10633 10637 10639 10643 10649 10655 10659 10659 10660 10664 10668 10671 10675 10677 10679 10682 10685 10688 10691 10695 10699 10705 10710 10714
10401 10391 10381 10373 10365 10356 10348 10341 10334 10326 10321 10316 10312 10309 10306 10304 10303 10303 10303 10304 10307 10309 10313 10317 10323 10333 10338 10337 10343 10352 10365 10378 10388 10405 10423 10435 10445 10457 10469 10477 10484 10494 10504 10516 10525 10532 10540 10549 10561 10574 10581 10586 10590 10594 10599 10602 10606 10609 10613 10618 10621 10625 10627 10625 10626 10630 10633 10638 10645 10649 10653 10655 10656 10660 10663 10667 10671 10673 10675 10677 10680 10683 10687 10692 10698 10704 10707 10709
10391 10380 10370 10362 10354 10347 10339 10332 10325 10319 10313 10309 10305 10301 10297 10295 10295 10295 10295 10297 10299 10299 10302 10306 10312 10320 10323 10323 10329 10339 10352 10365 10377 10392 10409 10422 10433 10445 10458 10467 10475 10487 10500 10508 10514 10523 10534 10547 10561 10568 10571 10575 10580 10586 10590 10596 10600 10602 10607 10612 10615 10620 10622 10620 10620 10624 10629 10634 10640 10644 10649 10651 10653 10656 10660 10664 10668 10669 10670 10672 10676 10680 10686 10692 10697 10700 10702 10703
10382 10371 10361 10352 10345 10338 10331 10324 10318 10311 10306 10302 10298 10294 10291 10288 10288 10287 10288 10290 10290 10290 10293 10297 10303 10307 10307 10307 10314 10328 10343 10356 10365 10377 10394 10409 10420 10432 10445 10456 10468 10479 10489 10496 10506 10519 10534 10548 10555 10558 10563 10568 10573 10579 10583 10589 10593 10596 10602 10607 10611 10615 10616 10614 10615 10621 10627 10631 10636 10640 10644 10648 10650 10653 10657 10660 10663 10665 10666 10669 10674 10679 10685 10689 10692 10694 10696 10697
10375 10364 10353 10344 10337 10330 10323 10317 10311 10305 10299 10295 10291 10288 10285 10282 10281 10281 10281 10282 10283 10283 10285 10289 10293 10293 10292 10294 10302 10320 10335 10343 10350 10362 10379 10396 10408 10419 10433 10448 10460 10468 10477 10490 10504 10518 10532 10542 10546 10549 10556 10561 10567 10573 10578 10584 10588 10592 10599 10603 10607 10610 10611 10610 10612 10618 10624 10627 10632 10635 10640 10644 10648 10651 10653 10657 10659 10661 10664 10667 10673 10679 10682 10684 10686 10688 10689 10691
10369 10358 10347 10338 10331 10324 10317 10311 10305 10299 10294 10289 10285 10282 10279 10277 10276 10275 10275 10275 10276 10277 10278 10282 10283 10282 10283 10288 10299 10315 10324 10329 10337 10349 10367 10383 10394 10407 10424 10439 10450 10459 10472 10486 10499 10511 10523 10532 10536 10542 10548 10553 10561 10567 10573 10580 10585 10589 10595 10599 10603 10606 10606 10605 10606 10613 10618 10622 10627 10630 10636 10642 10646 10648 10651 10653 10656 10658 10662 10666 10672 10676 10677 10678 10680 10682 10683 10685
10363 10353 10342 10333 10325 10318 10312 10305 10300 10294 10289 10284 10280 10276 10274 10272 10270 10270 10269 10269 10270 10270 10271 10275 10276 10274 10277 10284 10296 10308 10314 10320 10328 10338 10355 10369 10380 10396 10412 10426 10439 10453 10466 10478 10490 10503 10514 10521 10527 10533 10540 10547 10555 10562 10569 10576 10580 10585 10591 10596 10598 10600 10600 10599 10602 10609 10614 10619 10623 10627 10633 10639 10642 10645 10647 10650 10652 10655 10659 10664 10668 10671 10671 10673 10675 10676 10677 10679
10357 10347 10338 10329 10321 10313 10307 10301 10295 10290 10285 10280 10275 10272 10269 10267 10265 10264 10264 10263 10264 10264 10265 10268 10269 10270 10273 10279 10289 10300 10308 10312 10316 10327 10343 10355 10367 10383 10399 10415 10431 10444 10456 10468 10481 10495 10506 10514 10519 10526 10533 10541 10549 10557 10563 10569 10575 10581 10586 10590 10592 10594 10594 10594 10599 10605 10611 10616 10619 10624 10630 10634 10638 10641 10644 10646 10649 10651 10655 10660 10664 10665 10666 10667 10668 10670 10671 10673
10352 10343 10334 10326 10317 10310 10303 10297 10291 10286 10281 10276 10272 10268 10265 10263 10261 10259 10259 10258 10258 10259 10261 10263 10265 10267 10269 10274 10283 10293 10299 10300 10304 10321 10337 10345 10356 10371 10387 10406 10421 10433 10445 10458 10472 10487 10499 10507 10513 10520 10528 10536 10545 10553 10558 10564 10570 10576 10580 10583 10586 10588 10587 10589 10595 10601 10607 10611 10615 10621 10627 10631 10635 10638 10640 10643 10646 10650 10653 10657 10659 10659 10659 10660 10662 10664 10666 10668
10348 10339 10331 10323 10315 10307 10300 10294 10288 10283 10278 10273 10269 10265 10262 10260 10257 10256 10254 10254 10254 10255 10257 10258 10261 10264 10266 10271 10278 10285 10288 10288 10297 10315 10326 10332 10345 10360 10377 10396 10410 10422 10436 10452 10470 10484 10492 10499 10506 10514 10522 10532 10542 10548 10551 10556 10564 10569 10572 10575 10579 10580 10580 10584 10590 10597 10602 10607 10613 10619 10624 10628 10633 10635 10637 10641 10645 10648 10650 10652 10652 10653 10653 10655 10658 10660 10661 10664
10345 10336 10328 10320 10313 10305 10298 10292 10286 10281 10275 10270 10266 10263 10260 10257 10255 10253 10251 10250 10250 10252 10253 10255 10257 10260 10263 10268 10273 10278 10281 10284 10295 10309 10315 10322 10336 10350 10366 10383 10397 10410 10426 10446 10463 10473 10481 10491 10497 10505 10517 10528 10536 10540 10542 10549 10557 10560 10562 10567 10571 10573 10576 10581 10587 10594 10599 10605 10612 10617 10621 10626 10630 10631 10634 10638 10642 10643 10644 10645 10646 10647 10649 10652 10654 10655 10657 10660
10342 10333 10325 10318 10311 10303 10296 10290 10285 10279 10274 10269 10264 10261 10258 10255 10253 10251 10249 10248 10248 10249 10250 10251 10254 10257 10261 10265 10269 10273 10276 10282 10293 10304 10309 10318 10330 10342 10356 10371 10385 10399 10416 10436 10451 10461 10471 10481 10488 10499 10511 10520 10525 10529 10534 10541 10547 10549 10553 10560 10565 10569 10573 10578 10585 10591 10597 10606 10612 10614 10618 10624 10626 10628 10631 10634 10636 10636 10637 10639 10640 10642 10645 10648 10650 10651 10654 10656
10341 10332 10324 10317 10310 10302 10295 10289 10283 10278 10272 10267 10263 10260 10257 10254 10252 10249 10248 10246 10246 10247 10247 10249 10251 10255 10259 10262 10266 10270 10274 10281 10292 10300 10305 10313 10322 10334 10347 10362 10375 10390 10408 10427 10442 10453 10463 10473 10483 10495 10504 10509 10515 10520 10526 10534 10539 10541 10547 10556 10561 10566 10571 10576 10583 10589 10599 10607 10608 10610 10616 10620 10624 10626 10628 10630 10630 10631 10634 10635 10636 10638 10641 10644 10647 10649 10651 10653
10340 10330 10322 10315 10308 10302 10294 10288 10282 10277 10271 10266 10263 10260 10257 10254 10251 10248 10247 10245 10245 10245 10245 10247 10249 10252 10257 10260 10264 10269 10273 10280 10288 10294 10301 10310 10320 10332 10346 10360 10373 10388 10406 10425 10439 10449 10460 10471 10479 10487 10494 10502 10509 10515 10521 10528 10532 10536 10545 10554 10560 10564 10569 10575 10583 10591 10600 10604 10603 10607 10612 10617 10622 10623 10623 10625 10626 10627 10630 10630 10632 10635 10639 10643 10645 10647 10649 10650
10339 10330 10322 10314 10307 10301 10294 10288 10282 10276 10271 10267 10263 10260 10257 10254 10250 10248 10246 10244 10244 10244 10244 10245 10247 10250 10254 10258 10262 10267 10271 10277 10283 10288 10296 10307 10318 10331 10345 10358 10370 10387 10409 10427 10437 10445 10455 10463 10470 10479 10490 10499 10507 10514 10523 10530 10534 10539 10549 10556 10560 10565 10571 10578 10584 10591 10596 10598 10599 10604 10608 10614 10619 10619 10619 10622 10622 10623 10625 10626 10630 10633 10637 10640 10642 10644 10646 10647
10338 10329 10322 10314 10307 10301 10294 10288 10282 10277 10272 10267 10263 10259 10256 10253 10250 10247 10245 10244 10243 10243 10243 10244 10246 10249 10252 10255 10259 10263 10267 10273 10278 10284 10293 10304 10315 10327 10340 10351 10363 10381 10400 10414 10424 10437 10449 10459 10469 10481 10492 10499 10506 10515 10523 10527 10530 10537 10546 10552 10557 10563 10570 10576 10582 10587 10591 10594 10595 10599 10606 10613 10617 10616 10615 10617 10617 10619 10622 10625 10629 10631 10634 10637 10638 10640 10641 10642
10338 10329 10321 10314 10307 10300 10294 10288 10282 10277 10272 10268 10263 10259 10256 10252 10249 10247 10245 10243 10242 10242 10242 10243 10245 10247 10249 10252 10256 10260 10265 10270 10275 10283 10292 10303 10315 10327 10338 10349 10361 10378 10393 10404 10416 10430 10443 10456 10469 10479 10487 10495 10502 10510 10514 10515 10519 10529 10538 10546 10553 10560 10565 10570 10575 10580 10584 10588 10591 10596 10604 10610 10613 10612 10610 10612 10615 10617 10620 10624 10626 10628 10629 10631 10633 10634 10636 10637
10339 10330 10322 10315 10308 10301 10294 10288 10282 10277 10273 10267 10263 10259 10255 10252 10249 10247 10245 10243 10242 10242 10242 10243 10244 10246 10248 10251 10255 10260 10265 10269 10276 10284 10293 10303 10314 10325 10335 10346 10359 10376 10390 10402 10414 10427 10439 10451 10461 10469 10479 10488 10495 10502 10506 10510 10517 10527 10537 10547 10553 10556 10560 10565 10571 10575 10580 10585 10589 10594 10601 10606 10608 10607 10605 10608 10612 10614 10617 10620 10621 10623 10624 10625 10628 10629 10631 10633
10341 10331 10323 10315 10309 10302 10295 10288 10283 10278 10273 10268 10263 10259 10256 10252 10250 10247 10245 10244 10242 10242 10242 10243 10244 10246 10248 10251 10255 10259 10264 10270 10276 10283 10291 10301 10311 10321 10331 10342 10356 10372 10384 10396 10410 10423 10436 10446 10454 10464 10474 10481 10488 10493 10498 10504 10515 10527 10539 10545 10546 10548 10555 10562 10568 10573 10578 10584 10587 10592 10598 10602 10605 10604 10602 10606 10610 10611 10614 10616 10617 10619 10618 10619 10622 10624 10627 10630
10342 10333 10325 10317 10310 10303 10297 10290 10284 10279 10273 10269 10264 10260 10257 10254 10251 10249 10247 10246 10244 10243 10243 10244 10245 10246 10248 10251 10255 10259 10265 10270 10276 10282 10290 10298 10307 10318 10329 10341 10355 10367 10378 10390 10405 10417 10428 10438 10448 10458 10465 10471 10478 10484 10491 10501 10513 10525 10533 10535 10538 10546 10555 10561 10566 10571 10577 10582 10585 10589 10595 10599 10602 10602 10600 10603 10607 10608 10610 10611 10613 10614 10612 10614 10617 10621 10624 10627
10343 10335 10327 10318 10311 10304 10298 10292 10286 10280 10275 10271 10267 10262 10259 10256 10253 10250 10249 10248 10247 10246 10245 10246 10247 10248 10249 10252 10256 10260 10265 10270 10276 10282 10289 10297 10305 10315 10326 10339 10352 10363 10374 10387 10400 10411 10422 10431 10440 10449 10456 10463 10470 10480 10493 10505 10514 10520 10525 10530 10537 10546 10553 10557 10563 10569 10574 10579 10582 10587 10592 10596 10600 10599 10597 10600 10604 10605 10606 10608 10609 10608 10607 10610 10615 10618 10621 10624
10343 10336 10329 10321 10313 10305 10299 10292 10287 10281 10277 10273 10268 10263 10260 10258 10255 10253 10251 10250 10250 10249 10249 10248 10250 10251 10252 10254 10257 10261 10266 10271 10276 10282 10289 10297 10305 10314 10325 10336 10347 10359 10370 10382 10395 10407 10417 10426 10434 10441 10449 10459 10473 10488 10500 10507 10513 10520 10526 10532 10538 10544 10549 10553 10559 10565 10571 10575 10579 10583 10588 10593 10596 10596 10594 10597 10600 10601 10603 10604 10604 10604 10605 10609 10612 10615 10618 10620
10343 10335 10328 10321 10314 10307 10300 10294 10288 10283 10279 10274 10269 10265 10263 10261 10259 10256 10254 10253 10253 10253 10252 10252 10253 10255 10257 10258 10260 10263 10267 10272 10277 10283 10289 10297 10306 10315 10324 10335 10345 10355 10366 10379 10393 10404 10412 10420 10428 10438 10453 10469 10483 10490 10493 10497 10505 10514 10522 10528 10534 10541 10546 10551 10557 10564 10568 10571 10575 10579 10585 10589 10591 10592 10592 10593 10597 10599 10600 10601 10601 10602 10604 10606 10609 10611 10614 10616
10346 10336 10327 10321 10315 10309 10304 10297 10292 10287 10282 10277 10273 10270 10268 10265 10262 10259 10258 10256 10256 10256 10256 10256 10257 10258 10261 10264 10266 10268 10272 10275 10280 10285 10290 10297 10305 10314 10323 10333 10343 10352 10365 10378 10388 10397 10405 10414 10426 10442 10458 10468 10472 10474 10478 10485 10495 10503 10511 10519 10527 10536 10543 10550 10557 10561 10564 10568 10572 10577 10582 10585 10588 10590 10589 10591 10595 10597 10597 10598 10599 10600 10602 10604 10606 10608 10610 10612
10347 10338 10330 10323 10317 10312 10307 10301 10296 10291 10286 10280 10276 10273 10270 10268 10266 10263 10261 10260 10259 10260 10261 10261 10261 10262 10265 10268 10271 10273 10276 10279 10283 10288 10293 10299 10305 10313 10323 10333 10341 10349 10359 10368 10377 10387 10399 10411 10426 10440 10447 10450 10454 10461 10468 10478 10487 10497 10506 10514 10524 10534 10541 10546 10551 10554 10559 10565 10570 10574 10579 10582 10585 10587 10587 10588 10591 10593 10594 10595 10596 10598 10600 10601 10603 10605 10606 10608
10351 10342 10334 10327 10320 10314 10308 10302 10297 10292 10287 10282 10278 10276 10273 10271 10269 10267 10265 10264 10263 10263 10265 10266 10266 10266 10267 10270 10273 10276 10279 10282 10286 10290 10295 10302 10310 10317 10325 10332 10340 10347 10353 10361 10372 10384 10396 10408 10420 10428 10431 10436 10442 10449 10460 10474 10488 10500 10508 10516 10524 10530 10534 10540 10545 10550 10557 10562 10567 10571 10575 10578 10581 10584 10585 10585 10587 10590 10591 10592 10594 10596 10596 10597 10599 10601 10602 10605
10356 10347 10339 10331 10324 10317 10310 10304 10299 10294 10289 10285 10282 10278 10276 10274 10272 10270 10269 10268 10267 10266 10267 10269 10270 10271 10272 10273 10275 10278 10281 10285 10289 10293 10297 10304 10313 10322 10328 10332 10337 10342 10349 10359 10370 10380 10390 10402 10413 10421 10430 10440 10450 10462 10476 10489 10499 10506 10510 10516 10522 10527 10531 10537 10541 10547 10554 10559 10564 10568 10572 10575 10578 10580 10582 10583 10584 10586 10588 10589 10591 10592 10591 10593 10596 10598 10599 10602
10358 10351 10342 10334 10326 10319 10312 10307 10301 10297 10293 10289 10285 10282 10280 10278 10276 10274 10273 10272 10271 10270 10270 10271 10273 10275 10276 10277 10279 10282 10284 10287 10291 10296 10301 10307 10314 10321 10327 10331 10334 10340 10350 10361 10370 10379 10391 10402 10412 10423 10435 10448 10462 10476 10486 10493 10500 10506 10510 10515 10520 10525 10529 10533 10538 10545 10551 10556 10561 10565 10568 10571 10574 10577 10580 10581 10581 10583 10584 10586 10588 10588 10587 10589 10593 10595 10597 10600
10360 10352 10344 10336 10328 10322 10316 10311 10306 10301 10297 10293 10288 10285 10283 10282 10280 10278 10276 10275 10275 10274 10273 10273 10275 10277 10279 10280 10283 10285 10287 10290 10294 10298 10304 10310 10315 10320 10325 10329 10335 10344 10353 10361 10372 10384 10397 10408 10418 10427 10436 10445 10456 10466 10475 10484 10493 10500 10505 10511 10517 10522 10526 10531 10537 10543 10548 10552 10557 10561 10564 10567 10571 10574 10576 10578 10579 10580 10581 10583 10584 10584 10584 10586 10590 10592 10594 10596
10364 10354 10346 10338 10331 10325 10319 10314 10310 10306 10301 10296 10293 10290 10287 10285 10283 10282 10280 10279 10278 10277 10277 10277 10278 10279 10280 10282 10285 10288 10290 10293 10298 10302 10306 10310 10315 10321 10326 10333 10343 10351 10358 10365 10377 10391 10402 10412 10422 10430 10438 10446 10453 10461 10470 10479 10487 10493 10498 10506 10513 10519 10524 10530 10535 10540 10544 10550 10554 10558 10561 10564 10567 10569 10572 10575 10576 10578 10579 10581 10582 10581 10581 10584 10587 10589 10591 10592
10364 10356 10348 10341 10334 10328 10322 10317 10312 10308 10303 10299 10296 10293 10291 10289 10287 10285 10284 10283 10282 10281 10281 10282 10282 10283 10284 10284 10287 10290 10292 10296 10300 10305 10308 10312 10318 10323 10330 10339 10349 10356 10363 10373 10384 10394 10405 10415 10423 10429 10437 10446 10454 10461 10468 10476 10483 10489 10495 10501 10508 10514 10520 10526 10531 10537 10543 10547 10552 10555 10558 10560 10563 10566 10569 10571 10574 10575 10577 10578 10579 10578 10578 10580 10582 10584 10586 10587
10366 10358 10351 10345 10338 10331 10325 10320 10315 10310 10306 10302 10299 10297 10294 10292 10290 10288 10288 10287 10286 10285 10284 10285 10286 10287 10288 10288 10289 10292 10295 10297 10302 10307 10311 10316 10321 10326 10335 10344 10352 10359 10368 10379 10388 10397 10406 10414 10420 10428 10436 10444 10452 10460 10467 10474 10480 10486 10492 10498 10504 10510 10516 10522 10527 10534 10540 10544 10549 10552 10555 10557 10560 10562 10564 10567 10570 10572 10573 10574 10575 10575 10575 10576 10577 10579 10581 10583
10371 10363 10355 10347 10340 10333 10328 10323 10318 10314 10310 10306 10303 10300 10298 10295 10293 10291 10290 10290 10289 10289 10288 10288 10289 10291 10292 10292 10293 10295 10298 10300 10304 10308 10313 10318 10324 10331 10339 10347 10355 10363 10372 10380 10388 10397 10405 10412 10419 10427 10435 10442 10450 10458 10465 10472 10477 10482 10489 10495 10501 10507 10513 10518 10524 10531 10536 10541 10545 10548 10550 10552 10554 10557 10559 10563 10566 10568 10569 10570 10570 10570 10571 10571 10571 10574 10576 10577
10373 10365 10357 10349 10343 10337 10331 10326 10322 10317 10313 10309 10306 10303 10300 10298 10296 10294 10294 10293 10293 10292 10292 10291 10291 10293 10295 10296 10297 10299 10302 10304 10307 10310 10315 10321 10327 10335 10342 10349 10356 10365 10373 10380 10387 10395 10403 10411 10420 10427 10434 10441 10449 10456 10463 10468 10474 10480 10487 10493 10498 10505 10510 10515 10521 10527 10532 10537 10540 10543 10545 10547 10550 10553 10556 10559 10562 10564 10565 10565 10566 10566 10567 10566 10567 10569 10571 10573